Temp
79 79 81 81 83 64 75 76 67 72 83 78 69 69 73 72 67 63 76 71 76 84 86 88 88 90 91 93 95 96 95 96 95 95 97 98 98 97 96 95 94 92 93 92 92 91 92 92 91 91 89 89 89 88 88 86 86 87 86 86 87 87 87
78 83 83 83 83 83 80 68 74 83 86 82 71 61 65 62 58 62 72 68 70 70 65 85 86 86 89 90 92 96 95 96 95 96 97 96 97 98 97 95 94 94 94 92 93 94 94 93 93 91 89 91 90 90 89 87 87 86 87 87 88 88 87
76 78 79 77 82 85 77 78 88 72 63 61 69 66 55 57 55 60 67 72 72 74 72 82 82 84 86 89 91 93 94 95 95 97 97 97 99 99 97 96 95 95 94 93 92 94 95 94 92 92 92 92 92 91 91 91 88 89 89 90 89 88 88
75 75 74 62 70 80 83 83 79 84 77 69 64 65 67 66 59 59 62 69 65 77 79 84 83 86 88 90 91 92 95 96 96 97 98 97 97 97 98 97 97 96 96 96 96 95 95 95 94 94 94 94 94 93 91 91 92 90 89 89 88 87 89
72 62 70 67 72 69 71 72 70 75 76 82 77 75 68 64 60 61 61 60 68 78 87 87 86 87 89 91 90 91 94 96 99 98 98 98 98 98 98 98 98 97 97 98 97 97 97 97 96 96 96 95 95 95 93 93 90 91 91 91 90 88 89
62 66 76 76 77 78 75 72 69 74 71 68 62 59 76 71 65 57 61 59 72 84 91 89 89 90 91 92 92 93 95 97 97 98 99 99 98 98 99 100 101 100 97 98 99 97 97 97 97 96 96 96 96 94 95 94 94 93 93 92 90 88 89
65 72 75 75 75 74 72 76 74 76 75 74 67 54 63 71 71 74 70 64 68 86 88 89 90 91 93 93 94 93 96 97 99 100 102 100 99 99 100 101 102 102 99 98 98 96 95 96 95 96 96 96 95 95 95 95 94 94 95 94 93 89 89
65 70 75 76 75 72 71 74 76 76 72 74 72 70 72 67 70 65 66 59 69 85 87 88 90 90 92 93 95 93 96 98 99 100 100 99 98 98 101 101 103 101 100 97 95 94 93 94 93 94 95 95 95 96 96 96 95 95 95 95 94 91 90
55 61 68 70 74 73 71 71 74 75 74 72 71 70 70 62 68 70 64 57 67 82 87 88 88 91 92 93 95 95 93 95 97 98 99 100 98 97 99 99 100 99 99 95 93 93 91 92 95 94 94 94 95 95 96 97 96 97 96 95 94 92 92
43 44 47 51 57 64 69 74 73 68 71 70 68 63 65 56 64 67 66 66 75 84 84 85 87 88 88 92 95 97 97 94 96 97 97 93 94 93 94 96 97 96 95 94 92 91 91 94 95 92 92 94 96 96 96 98 97 96 96 96 95 93 93
50 53 51 58 59 61 63 65 65 68 70 71 70 70 65 60 65 63 67 70 74 77 82 82 85 87 88 90 92 93 94 95 96 94 94 95 93 92 93 93 95 94 93 92 91 91 93 95 96 95 95 94 96 93 94 97 97 96 94 94 93 93 93
53 57 57 61 60 56 59 61 63 67 66 67 68 64 62 68 64 60 70 71 70 74 81 83 83 87 88 91 91 93 94 93 95 95 91 90 96 95 94 93 92 91 91 91 90 90 93 94 95 95 95 96 94 93 94 95 97 97 96 94 93 92 91
57 60 60 62 61 60 60 61 62 62 66 65 62 65 69 70 62 60 69 69 69 75 81 85 85 82 84 88 88 90 92 93 93 92 92 95 97 96 95 91 90 91 91 89 90 91 92 94 94 95 95 95 94 94 94 94 97 96 94 93 92 92 91
55 57 58 61 59 59 60 60 63 64 64 65 66 67 69 69 63 67 67 68 70 77 81 83 83 84 86 88 89 91 91 91 88 90 91 95 97 99 97 94 93 91 91 90 89 90 89 92 92 95 94 93 94 94 94 95 94 96 94 92 91 91 90
50 56 59 60 60 58 56 60 62 64 65 66 67 67 69 69 69 69 70 67 68 80 82 78 82 83 87 87 88 88 87 88 89 89 91 93 93 95 95 96 95 93 92 92 90 89 89 90 92 93 93 93 94 96 95 95 94 95 95 91 90 90 89
46 55 57 59 61 60 57 57 60 62 63 61 65 64 69 67 64 66 67 64 67 77 79 77 80 83 83 84 84 85 86 87 85 86 88 89 89 91 92 92 94 95 94 93 91 91 92 93 93 93 92 94 94 95 94 94 96 97 95 92 91 89 90
46 55 58 59 59 57 53 54 60 63 65 67 69 71 68 67 69 65 62 66 73 69 71 73 76 80 82 84 85 82 83 82 84 84 85 86 88 89 88 89 89 93 97 97 93 94 94 94 94 95 95 95 92 93 92 93 95 95 93 93 90 89 90
45 52 56 58 53 43 46 65 70 68 65 67 65 65 63 65 68 68 69 68 69 70 70 69 70 73 75 77 81 85 82 81 81 83 84 85 86 88 89 90 90 91 92 95 97 95 93 95 98 97 95 95 94 95 94 93 93 92 91 90 89 89 89
43 50 51 43 38 44 63 67 70 73 74 73 69 62 62 64 66 66 66 69 68 66 68 69 71 72 76 80 82 86 87 83 81 80 82 83 84 85 86 87 90 89 90 92 95 95 97 98 97 96 96 97 95 95 93 92 92 90 90 89 89 89 88
48 45 44 31 39 59 64 65 67 68 73 74 64 58 60 64 66 65 64 65 66 67 68 71 73 73 77 80 82 85 87 84 80 80 81 82 84 85 86 86 86 86 90 93 96 96 97 98 99 98 96 98 97 94 94 92 91 90 89 88 88 88 88
38 43 44 44 54 56 58 60 61 66 60 59 57 50 51 59 63 63 60 61 63 64 67 69 72 76 78 77 79 88 82 80 81 81 80 82 83 85 86 89 89 89 91 93 96 96 96 98 99 97 98 98 96 95 93 92 90 90 89 87 88 88 88
48 42 40 42 44 39 51 59 64 67 67 64 64 58 49 59 62 63 60 59 59 60 62 65 69 74 73 71 77 78 78 80 79 80 81 83 85 87 88 88 90 90 92 94 96 97 96 96 97 96 97 96 93 91 90 90 90 89 89 88 89 88 88
46 42 36 35 34 45 50 56 62 66 67 68 67 61 52 54 61 61 61 59 58 56 56 59 68 72 68 72 75 72 74 74 76 75 78 83 86 88 88 89 90 93 94 93 95 94 94 94 95 94 94 94 93 90 89 90 90 90 89 89 90 89 89
45 44 39 37 45 42 52 54 60 68 68 64 63 47 46 50 59 59 59 58 56 54 55 60 62 60 63 61 62 68 69 71 72 74 76 79 83 86 90 91 90 91 92 91 92 93 93 93 95 93 94 94 91 89 89 92 91 90 90 90 91 91 92
43 41 42 47 49 56 55 58 62 64 66 63 49 42 47 55 58 58 58 58 56 54 56 59 55 57 57 59 62 64 65 67 70 75 78 79 82 83 88 88 85 90 92 91 92 93 93 92 94 94 94 93 90 89 89 89 89 91 92 91 91 91 91
42 43 39 39 48 52 53 60 60 59 55 47 46 49 57 58 56 58 59 57 57 56 56 57 58 59 62 64 65 65 64 64 66 72 75 77 80 84 85 85 85 89 92 90 91 93 92 94 94 94 92 90 88 88 88 89 90 94 92 91 90 90 89
47 45 39 36 31 47 54 55 59 57 49 45 48 53 57 60 57 57 58 58 56 56 55 59 59 60 61 62 64 66 65 64 65 69 72 72 74 77 80 85 87 89 89 89 91 93 95 95 95 94 93 88 88 87 87 88 92 93 92 91 90 90 89
40 39 34 35 45 47 53 53 46 50 49 51 52 54 56 60 57 55 55 56 57 56 56 57 59 59 61 62 62 62 61 63 66 68 70 71 72 75 81 85 86 88 86 88 92 94 95 94 93 93 91 88 87 87 87 90 92 92 91 91 90 89 88
44 42 42 47 52 53 55 54 53 53 54 55 53 55 56 56 56 58 56 56 58 58 57 57 58 59 61 61 61 58 59 62 64 65 67 69 69 71 75 81 84 87 88 86 89 91 93 92 92 91 91 88 87 86 89 90 90 91 90 90 89 88 89
47 49 48 50 52 53 54 57 57 55 54 55 55 53 53 56 58 59 58 58 59 58 60 58 57 58 60 61 60 59 61 62 64 65 67 68 69 70 72 75 80 84 86 87 86 86 88 90 90 90 91 90 86 87 90 90 91 91 90 88 88 88 89
39 36 48 48 50 52 54 55 57 57 56 55 55 54 53 55 58 60 62 62 61 62 63 61 59 60 61 59 59 59 61 61 63 63 64 65 66 67 68 72 75 78 82 83 83 84 84 87 90 92 91 91 90 90 89 91 92 90 89 88 87 88 88
36 38 45 49 52 53 54 55 54 54 56 57 56 56 56 57 58 60 62 62 62 63 60 62 62 62 64 61 59 58 60 61 63 62 63 64 65 67 69 71 74 76 76 77 80 82 83 85 86 87 88 89 89 90 91 93 92 90 88 87 88 88 89
41 46 48 49 51 54 54 55 57 57 56 55 56 56 57 57 57 59 62 64 63 64 62 62 63 62 61 62 62 61 60 61 62 62 62 64 65 66 67 69 72 73 74 76 77 79 80 83 85 86 87 88 89 89 90 91 91 88 87 86 88 89 90
37 38 40 45 39 41 48 52 56 56 57 56 56 57 55 57 57 58 59 61 63 63 63 64 64 62 61 62 63 62 63 62 62 62 63 64 65 66 68 69 70 71 74 75 76 77 78 80 81 82 83 84 87 89 89 89 89 87 87 87 87 87 89
35 42 45 46 46 45 48 51 54 55 56 55 54 53 53 55 57 58 58 60 61 60 62 65 64 62 60 62 63 63 64 65 66 64 65 65 65 65 66 67 67 69 71 73 75 76 77 78 79 80 81 82 83 84 85 87 88 88 87 86 87 88 88
44 46 45 46 45 43 48 51 53 54 54 54 53 55 56 56 56 58 58 59 58 58 61 64 65 64 62 63 64 63 64 66 67 67 67 67 66 65 66 67 67 67 68 70 72 73 76 77 78 78 79 80 82 84 85 86 86 87 87 87 86 88 89
40 46 47 48 48 49 52 53 55 56 56 55 54 55 57 57 58 59 57 58 60 60 59 61 64 65 63 64 64 63 63 66 67 68 67 67 67 66 66 67 66 67 68 70 71 73 75 76 77 77 77 77 79 82 84 86 86 86 87 88 88 88 89
MSLP
1006.41 1006.69 1006.21 1006.49 1006.09 1011.33 1007.53 1008.25 1010.33 1008.57 1006.29 1007.65 1009.77 1009.49 1008.37 1008.61 1009.77 1009.97 1006.61 1008.41 1007.29 1004.73 1003.77 1003.69 1003.53 1003.41 1003.05 1002.53 1002.53 1002.57 1002.65 1002.65 1002.97 1003.25 1003.05 1003.13 1003.25 1003.49 1003.93 1004.37 1004.61 1004.93 1005.21 1005.61 1005.73 1006.01 1006.41 1006.81 1007.25 1007.49 1007.85 1008.25 1008.77 1009.33 1009.85 1010.45 1010.81 1011.05 1011.53 1011.93 1012.37 1012.81 1013.25
1006.85 1005.69 1005.61 1005.65 1005.57 1005.49 1006.09 1009.65 1007.93 1006.13 1005.41 1006.17 1008.93 1011.81 1010.29 1011.57 1012.25 1009.97 1007.93 1008.97 1008.61 1008.89 1009.77 1003.65 1004.13 1004.33 1003.61 1003.29 1002.77 1002.21 1002.05 1002.17 1002.85 1002.69 1002.61 1002.69 1002.77 1002.81 1003.01 1003.33 1003.61 1004.09 1004.45 1004.93 1005.21 1005.37 1005.53 1005.81 1006.17 1006.81 1007.37 1007.61 1008.09 1008.53 1009.05 1009.81 1010.29 1010.81 1011.01 1011.45 1011.89 1012.37 1012.89
1007.13 1006.97 1007.17 1007.57 1006.09 1005.29 1006.77 1006.25 1003.73 1008.37 1010.77 1011.81 1008.73 1010.25 1013.01 1012.33 1012.37 1010.93 1008.53 1007.61 1007.21 1006.69 1007.13 1004.25 1004.33 1004.17 1003.69 1003.01 1002.45 1002.41 1002.33 1002.13 1002.21 1002.09 1002.05 1002.05 1001.93 1002.13 1002.73 1003.13 1003.57 1003.85 1004.05 1004.37 1004.61 1004.69 1004.73 1005.13 1005.65 1006.05 1006.57 1007.05 1007.53 1008.01 1008.37 1008.81 1009.49 1009.73 1010.25 1010.69 1011.29 1011.81 1012.21
1007.45 1007.89 1007.93 1010.33 1008.61 1006.37 1005.57 1005.45 1005.65 1004.37 1006.57 1008.41 1010.37 1009.57 1008.73 1009.09 1010.61 1010.89 1009.57 1008.29 1008.85 1005.45 1004.77 1003.45 1003.49 1002.77 1002.41 1002.33 1002.29 1002.21 1001.61 1001.49 1001.53 1001.49 1001.61 1001.81 1001.89 1001.85 1002.01 1002.41 1002.77 1002.97 1003.13 1003.29 1003.61 1003.93 1004.33 1004.69 1005.17 1005.49 1005.93 1006.37 1006.93 1007.33 1007.93 1008.37 1008.85 1009.41 1009.85 1010.25 1010.73 1011.37 1011.57
1008.61 1010.49 1008.09 1008.49 1007.45 1008.21 1008.33 1008.05 1008.09 1006.61 1006.45 1004.37 1006.17 1006.73 1008.37 1009.29 1009.89 1009.65 1009.61 1010.09 1007.33 1004.25 1002.09 1002.37 1002.33 1002.17 1001.77 1001.61 1001.93 1001.53 1001.29 1000.81 1000.45 1000.77 1000.97 1000.97 1001.17 1001.33 1001.29 1001.57 1001.93 1002.25 1002.41 1002.53 1002.81 1003.17 1003.49 1003.93 1004.61 1005.13 1005.53 1005.93 1006.25 1006.81 1007.45 1007.81 1008.49 1008.89 1009.33 1009.57 1010.05 1010.65 1010.97
1010.13 1008.77 1006.25 1006.29 1005.89 1005.53 1006.01 1007.09 1008.01 1006.61 1007.13 1008.13 1010.05 1010.25 1005.93 1006.81 1008.73 1009.73 1009.85 1009.89 1005.61 1001.93 1000.37 1001.25 1001.73 1001.41 1001.33 1001.09 1001.13 1001.05 1000.69 1000.53 1000.25 1000.09 1000.17 1000.21 1000.69 1000.69 1000.69 1000.73 1000.89 1001.25 1001.65 1001.89 1002.21 1002.77 1003.25 1003.81 1004.29 1004.69 1004.77 1005.29 1005.93 1006.29 1006.53 1007.13 1007.69 1008.25 1008.65 1009.09 1009.45 1009.93 1010.33
1009.17 1007.09 1006.13 1006.61 1006.57 1006.77 1006.89 1005.53 1005.81 1005.81 1005.57 1006.13 1008.21 1010.97 1008.37 1006.77 1006.29 1006.09 1006.73 1008.57 1006.41 1001.17 1001.01 1001.01 1001.05 1000.89 1000.65 1000.53 1000.65 1001.01 1000.45 999.97 999.57 999.41 999.29 999.53 999.81 1000.13 1000.13 1000.13 1000.09 1000.29 1000.81 1001.29 1001.77 1002.45 1002.85 1003.09 1003.41 1003.85 1004.29 1004.69 1005.01 1005.41 1005.97 1006.41 1006.89 1007.37 1007.61 1008.21 1008.65 1009.29 1009.85
1009.97 1008.13 1006.93 1006.41 1006.77 1007.49 1007.41 1006.21 1005.41 1004.93 1005.57 1005.21 1005.77 1005.97 1005.69 1006.89 1006.21 1008.05 1008.13 1009.85 1006.69 1001.89 1000.85 1001.05 1000.73 1000.81 1000.53 1000.13 1000.09 1000.53 1000.17 999.61 999.21 998.97 998.97 999.17 999.57 999.61 999.45 999.29 999.33 999.73 1000.41 1001.17 1001.77 1002.41 1002.85 1003.09 1003.53 1003.93 1004.09 1004.29 1004.65 1005.05 1005.37 1005.77 1006.33 1006.73 1007.17 1007.61 1008.17 1008.85 1009.41
1011.53 1010.33 1008.17 1007.37 1006.65 1007.05 1006.93 1006.53 1005.69 1005.65 1006.01 1006.25 1006.53 1007.01 1006.89 1008.69 1006.57 1005.89 1007.97 1010.21 1007.37 1002.49 1000.93 1001.13 1001.33 1001.01 1000.81 1000.65 1000.25 1000.17 1000.65 1000.25 999.85 999.37 999.09 998.65 999.09 999.61 999.65 999.61 999.69 999.85 1000.37 1001.13 1001.53 1001.69 1002.21 1002.53 1002.73 1003.13 1003.49 1003.85 1004.13 1004.45 1004.69 1005.13 1005.57 1006.01 1006.57 1006.97 1007.61 1008.29 1008.85
1013.05 1012.97 1012.29 1010.89 1009.93 1008.37 1007.05 1005.77 1006.01 1007.65 1007.01 1006.93 1007.41 1008.49 1007.73 1009.85 1007.33 1006.57 1006.73 1006.85 1004.09 1001.53 1001.37 1001.69 1001.53 1001.29 1001.17 1000.41 999.89 999.41 999.45 999.97 1000.01 999.65 999.69 1000.25 1000.13 1000.41 1000.29 1000.09 1000.17 1000.41 1000.45 1000.81 1001.33 1001.73 1002.09 1002.25 1002.37 1002.81 1003.17 1003.41 1003.65 1003.93 1004.17 1004.33 1005.09 1005.61 1006.09 1006.41 1007.01 1007.77 1008.29
1011.61 1010.93 1012.49 1011.77 1011.21 1009.93 1008.33 1008.21 1008.61 1007.69 1007.17 1006.93 1006.93 1006.61 1007.25 1008.13 1007.45 1008.13 1006.69 1005.85 1004.37 1003.45 1002.41 1002.53 1001.89 1001.37 1001.29 1000.77 1000.13 999.97 1000.01 999.57 999.33 999.73 999.85 999.89 1000.21 1000.41 1000.53 1000.53 1000.37 1000.41 1000.81 1001.21 1001.37 1001.53 1001.65 1001.77 1002.01 1002.33 1002.69 1003.05 1003.25 1003.65 1004.01 1004.13 1004.45 1005.05 1005.57 1006.09 1006.69 1007.33 1007.77
1013.25 1012.49 1011.77 1010.85 1011.29 1012.01 1010.77 1009.97 1009.09 1007.93 1008.09 1007.85 1007.57 1007.97 1008.01 1006.41 1007.73 1007.93 1005.57 1005.33 1006.41 1004.77 1002.53 1002.01 1002.05 1001.29 1000.81 1000.37 1000.09 999.73 999.53 999.77 999.73 999.73 1000.29 1000.09 999.85 999.93 1000.09 1000.37 1000.57 1000.81 1000.73 1000.85 1001.21 1001.37 1001.49 1001.65 1001.65 1001.89 1002.21 1002.49 1002.89 1003.33 1003.77 1003.89 1004.13 1004.65 1005.09 1005.69 1006.29 1006.85 1007.33
1012.61 1011.85 1011.53 1010.81 1010.93 1010.97 1010.69 1010.21 1009.77 1009.17 1007.97 1008.29 1008.89 1007.65 1006.69 1006.41 1008.33 1008.33 1006.01 1006.13 1006.21 1004.49 1002.89 1001.65 1001.37 1002.41 1002.09 1001.49 1001.33 1000.69 1000.17 999.89 999.77 1000.09 1000.25 1000.05 999.69 999.69 1000.09 1000.29 1000.37 1000.57 1000.85 1001.01 1001.09 1001.21 1001.25 1001.21 1001.49 1001.69 1001.97 1002.29 1002.61 1003.01 1003.33 1003.65 1003.81 1004.17 1004.53 1005.25 1005.93 1006.49 1007.01
1013.25 1012.25 1011.81 1011.17 1011.09 1010.85 1010.65 1010.21 1009.45 1009.05 1008.73 1008.21 1008.01 1007.65 1007.01 1007.01 1007.97 1007.05 1007.17 1006.53 1006.17 1004.21 1003.05 1002.49 1002.49 1001.97 1001.57 1001.13 1000.61 1000.21 1000.25 1000.49 1000.65 1000.45 1000.29 999.85 999.37 999.05 999.37 999.89 999.93 1000.09 1000.13 1000.37 1000.61 1000.77 1001.01 1001.09 1001.21 1001.37 1001.65 1001.93 1002.21 1002.61 1002.97 1003.13 1003.45 1003.65 1004.21 1004.97 1005.57 1006.05 1006.57
1013.69 1012.21 1011.33 1010.85 1010.77 1010.85 1010.97 1009.93 1009.37 1008.69 1008.29 1008.01 1007.49 1007.57 1006.97 1006.85 1006.85 1006.93 1006.77 1007.21 1006.61 1003.25 1002.53 1003.69 1002.81 1002.05 1001.25 1001.13 1001.25 1001.29 1001.09 1000.93 1000.77 1000.77 1000.45 999.97 999.89 999.61 999.37 999.05 999.45 999.53 999.69 999.81 1000.13 1000.45 1000.65 1000.69 1000.77 1000.89 1001.09 1001.29 1001.61 1002.05 1002.49 1002.85 1003.17 1003.17 1003.61 1004.53 1005.09 1005.53 1006.09
1014.37 1012.29 1011.41 1010.41 1010.09 1010.05 1010.41 1009.97 1009.41 1008.81 1008.45 1008.73 1007.65 1007.69 1006.53 1006.81 1007.25 1007.21 1007.29 1007.73 1007.09 1004.09 1003.85 1004.21 1003.13 1002.49 1002.37 1002.17 1001.89 1001.65 1001.57 1001.41 1001.49 1001.45 1001.05 1000.65 1000.41 1000.01 999.73 999.65 999.21 999.13 999.37 999.61 999.85 1000.05 999.97 999.97 1000.21 1000.41 1000.77 1001.01 1001.37 1001.65 1001.89 1002.21 1002.45 1002.65 1003.33 1004.05 1004.69 1005.21 1005.61
1013.69 1012.01 1010.89 1010.33 1009.81 1010.09 1010.17 1009.53 1008.49 1008.05 1007.49 1007.09 1006.21 1005.65 1006.21 1006.65 1006.21 1007.37 1007.73 1006.53 1005.33 1006.21 1005.73 1005.45 1004.41 1003.57 1002.85 1002.29 1002.05 1002.41 1002.09 1001.97 1001.81 1001.77 1001.45 1000.97 1000.41 1000.05 999.93 999.77 999.77 999.41 998.85 998.69 999.01 998.93 999.01 999.25 999.53 999.57 999.73 1000.37 1000.85 1000.85 1001.29 1001.53 1001.97 1002.53 1003.13 1003.77 1004.45 1005.01 1005.29
1014.21 1012.49 1011.09 1010.41 1011.21 1011.69 1009.77 1006.09 1005.41 1006.05 1006.89 1006.69 1007.05 1006.81 1007.57 1007.25 1006.69 1006.45 1006.13 1006.45 1006.17 1006.13 1006.49 1006.37 1006.05 1005.41 1004.73 1003.93 1002.69 1001.93 1002.29 1002.33 1002.21 1001.81 1001.41 1001.13 1000.65 1000.21 999.85 999.61 999.49 999.17 998.77 998.21 997.89 998.09 998.21 998.29 998.21 998.45 998.97 999.53 999.93 1000.25 1000.93 1001.53 1002.05 1002.45 1003.13 1003.65 1004.17 1004.69 1004.97
1014.41 1013.05 1012.53 1013.77 1013.25 1010.53 1006.57 1006.09 1005.49 1004.53 1004.41 1004.85 1005.85 1007.65 1008.13 1007.69 1007.17 1007.21 1007.29 1006.49 1006.53 1007.33 1007.09 1006.57 1006.01 1005.45 1004.53 1003.45 1002.73 1001.85 1001.33 1001.93 1002.29 1002.33 1001.89 1001.49 1001.05 1000.61 1000.09 999.77 999.29 999.05 998.69 998.17 997.65 997.69 997.73 997.65 997.97 998.57 999.21 999.49 1000.01 1000.41 1000.73 1001.33 1001.69 1002.33 1002.89 1003.45 1004.05 1004.41 1004.77
1014.01 1013.93 1013.53 1015.13 1011.89 1007.33 1006.45 1006.45 1006.05 1005.57 1004.21 1004.21 1006.97 1009.01 1008.93 1007.89 1007.57 1007.73 1007.89 1007.65 1007.77 1007.49 1006.89 1006.09 1005.41 1005.13 1004.29 1003.29 1002.33 1001.69 1001.37 1001.81 1002.57 1002.65 1002.29 1001.69 1001.17 1000.69 999.97 999.69 999.29 999.25 998.69 997.89 997.41 997.13 996.85 997.17 997.53 997.89 998.41 998.65 999.45 1000.13 1000.41 1001.13 1001.65 1002.13 1002.69 1003.33 1003.81 1004.09 1004.57
1015.33 1013.57 1013.01 1012.21 1009.25 1008.25 1008.21 1007.57 1007.53 1006.45 1007.09 1007.45 1008.01 1009.89 1010.61 1009.37 1008.57 1008.65 1009.09 1008.89 1008.41 1007.97 1007.17 1006.41 1005.53 1004.53 1003.97 1003.81 1002.85 1000.97 1002.45 1002.89 1002.65 1002.53 1002.25 1001.65 1001.01 1000.25 999.61 999.05 998.57 997.89 997.61 997.29 996.69 996.49 996.81 996.97 997.21 997.61 997.85 998.29 999.01 999.77 1000.53 1000.93 1001.37 1001.93 1002.49 1003.13 1003.41 1003.69 1004.05
1013.61 1013.85 1013.73 1012.89 1011.65 1011.81 1008.33 1007.65 1007.21 1006.49 1006.37 1007.25 1007.09 1008.01 1010.89 1009.65 1008.89 1008.89 1009.21 1009.17 1009.13 1008.93 1008.13 1007.13 1006.01 1004.77 1004.77 1005.01 1002.97 1003.05 1003.45 1003.05 1003.01 1002.49 1002.01 1001.29 1000.61 999.93 999.25 998.57 997.97 997.41 996.93 996.53 996.21 996.21 996.57 996.69 996.65 997.01 997.57 998.13 998.81 999.69 1000.37 1000.77 1001.33 1001.85 1002.17 1002.61 1002.81 1003.21 1003.57
1013.49 1013.97 1014.53 1013.69 1013.17 1009.97 1009.85 1008.85 1007.77 1007.01 1006.69 1006.45 1006.45 1007.53 1009.21 1010.33 1008.93 1009.21 1009.21 1009.41 1009.53 1009.77 1009.45 1008.25 1005.89 1004.65 1005.33 1003.77 1003.25 1004.37 1004.13 1003.93 1003.45 1003.25 1002.37 1001.49 1000.53 999.69 999.05 998.53 997.89 996.89 996.37 996.33 996.09 996.17 996.41 996.89 996.65 996.81 997.29 997.93 998.73 999.65 1000.09 1000.49 1000.89 1001.49 1001.85 1002.09 1002.33 1002.69 1002.97
1013.17 1013.01 1013.41 1013.13 1011.25 1010.73 1009.97 1009.93 1008.81 1006.89 1006.89 1007.33 1007.49 1010.09 1009.77 1010.77 1009.49 1009.69 1009.73 1009.69 1010.09 1010.13 1009.61 1008.21 1007.45 1007.49 1006.45 1006.89 1006.65 1005.49 1005.21 1004.65 1004.01 1003.33 1002.61 1001.77 1000.85 999.81 998.65 998.05 997.49 996.73 996.17 996.37 996.37 996.53 996.65 996.65 996.41 996.89 997.21 997.85 998.57 999.29 999.77 1000.05 1000.65 1001.01 1001.17 1001.29 1001.45 1001.89 1002.41
1013.21 1013.45 1012.85 1011.57 1010.17 1008.81 1009.85 1009.49 1008.61 1008.01 1007.33 1007.53 1009.57 1010.21 1010.25 1010.17 1009.85 1010.05 1009.97 1009.77 1010.05 1010.17 1009.61 1008.77 1008.97 1008.81 1008.69 1008.13 1007.17 1006.29 1005.61 1005.01 1004.09 1003.13 1002.13 1001.49 1000.73 1000.13 998.97 998.33 997.73 996.69 996.37 996.49 996.57 996.45 996.33 996.29 996.37 996.73 997.09 997.81 998.57 999.05 999.37 999.85 1000.21 1000.05 1000.21 1000.69 1001.29 1001.69 1002.05
1013.09 1012.53 1013.25 1012.49 1010.57 1010.37 1011.01 1009.25 1009.05 1009.17 1009.13 1009.37 1009.21 1010.53 1010.21 1009.77 1010.21 1010.09 1009.93 1009.97 1010.09 1010.05 1009.89 1009.41 1009.09 1008.61 1007.97 1007.49 1006.85 1006.41 1005.89 1005.45 1004.57 1003.53 1002.45 1001.65 1000.73 999.69 998.69 998.13 997.69 996.97 996.65 996.65 996.53 996.37 996.25 996.37 996.41 996.61 997.05 997.85 998.37 998.81 999.17 999.49 999.37 999.33 999.93 1000.45 1000.89 1001.41 1001.93
1012.13 1012.21 1012.85 1013.41 1014.09 1011.01 1011.05 1010.45 1008.93 1009.73 1009.57 1010.85 1011.69 1010.69 1010.05 1009.89 1010.29 1010.33 1010.17 1010.13 1010.37 1010.17 1009.89 1009.33 1009.01 1008.61 1008.13 1007.65 1007.09 1006.41 1006.01 1005.25 1004.81 1003.85 1002.81 1002.33 1001.69 1000.81 999.73 998.53 997.65 997.25 997.05 996.93 996.77 996.49 996.29 996.29 996.37 996.57 996.97 997.85 998.25 998.53 998.89 998.85 998.81 999.13 999.61 1000.13 1000.69 1001.21 1001.69
1012.53 1012.57 1013.29 1012.97 1011.89 1012.77 1011.65 1011.25 1011.25 1011.25 1011.77 1011.69 1011.25 1010.65 1009.89 1009.93 1010.45 1010.81 1010.57 1010.45 1010.45 1010.37 1010.09 1009.65 1009.05 1008.73 1008.17 1007.57 1007.17 1006.73 1006.25 1005.41 1004.49 1003.65 1002.97 1002.33 1001.77 1001.05 999.69 998.77 998.13 997.49 997.65 997.13 996.73 996.33 996.17 996.25 996.37 996.53 996.97 997.81 998.13 998.45 998.69 998.45 998.65 999.01 999.53 1000.05 1000.57 1001.17 1001.61
1012.65 1012.01 1012.61 1012.73 1012.33 1011.89 1011.69 1011.65 1011.73 1011.81 1011.61 1011.65 1011.61 1011.13 1010.77 1010.57 1010.69 1010.53 1010.69 1010.61 1010.29 1010.17 1010.21 1009.81 1009.37 1008.69 1008.13 1007.77 1007.53 1007.29 1006.45 1005.61 1004.69 1004.05 1003.41 1002.77 1002.29 1001.57 1000.61 999.33 998.33 997.65 997.61 997.69 997.09 996.65 996.29 996.41 996.53 996.73 996.93 997.73 998.29 998.81 998.57 998.33 998.73 999.09 999.61 1000.09 1000.65 1001.17 1001.53
1014.17 1013.41 1013.25 1012.85 1012.37 1012.01 1011.73 1011.53 1011.41 1011.65 1011.85 1011.73 1011.73 1011.69 1011.49 1010.89 1010.65 1010.49 1010.33 1010.25 1010.09 1010.01 1009.57 1009.61 1009.41 1009.01 1008.45 1007.89 1007.49 1007.01 1006.29 1005.65 1004.69 1004.05 1003.45 1002.81 1002.25 1001.61 1000.93 1000.13 999.09 998.25 997.89 997.77 997.81 997.85 997.37 996.89 997.01 997.01 997.21 997.61 998.61 998.69 998.29 998.49 998.65 999.09 999.61 1000.25 1000.81 1001.17 1001.37
1015.49 1013.77 1012.73 1012.73 1012.61 1012.33 1011.69 1011.57 1011.49 1011.53 1011.69 1011.61 1011.57 1011.53 1011.53 1011.29 1010.77 1010.37 1010.09 1009.93 1009.81 1009.41 1009.13 1009.21 1009.13 1008.73 1008.37 1008.13 1007.65 1007.09 1006.25 1005.73 1005.05 1004.49 1004.01 1003.29 1002.69 1002.25 1001.73 1000.93 999.89 999.33 998.81 998.53 998.45 998.25 998.17 997.57 997.29 997.29 997.57 997.65 998.01 998.13 998.45 998.49 998.73 999.13 999.73 1000.25 1000.81 1001.09 1001.33
1016.01 1014.49 1013.45 1012.97 1012.57 1012.01 1011.65 1011.53 1011.65 1011.49 1011.33 1011.33 1011.41 1011.37 1011.29 1011.17 1010.93 1010.45 1010.05 1009.97 1009.69 1009.41 1009.41 1009.13 1008.81 1008.53 1008.09 1007.89 1007.61 1007.21 1006.49 1006.01 1005.37 1004.93 1004.37 1003.69 1003.13 1002.45 1001.81 1001.17 1000.49 1000.13 999.85 999.61 999.13 998.73 998.61 998.21 997.93 997.85 997.89 997.97 998.13 998.29 998.37 998.41 998.69 999.29 999.85 1000.29 1000.69 1000.97 1001.13
1015.05 1013.77 1013.25 1013.13 1012.37 1011.33 1011.21 1011.33 1011.17 1011.29 1011.45 1011.57 1011.37 1011.29 1011.17 1010.97 1010.73 1010.37 1009.93 1009.77 1009.65 1009.33 1009.33 1009.01 1008.73 1008.53 1008.33 1008.05 1007.53 1007.05 1006.53 1006.09 1005.61 1005.25 1004.73 1003.97 1003.41 1002.93 1002.41 1001.77 1001.21 1000.97 1000.61 1000.33 999.97 999.53 999.29 998.69 998.41 998.45 998.53 998.49 998.45 998.53 998.53 998.61 998.85 999.57 1000.01 1000.33 1000.61 1000.85 1001.01
1015.01 1015.01 1014.93 1014.57 1014.49 1013.17 1012.13 1011.77 1011.53 1011.57 1011.37 1011.29 1011.09 1010.85 1010.85 1010.77 1010.61 1010.41 1010.25 1009.85 1009.65 1009.53 1009.33 1008.89 1008.69 1008.65 1008.45 1007.97 1007.45 1007.13 1006.45 1006.01 1005.73 1005.37 1004.73 1004.17 1003.69 1003.29 1002.77 1002.37 1001.89 1001.41 1000.97 1000.69 1000.49 1000.21 999.85 999.41 999.17 999.13 999.13 999.01 998.77 998.65 998.73 998.93 999.21 999.77 1000.09 1000.37 1000.73 1000.89 1000.93
1015.89 1015.01 1014.85 1014.73 1014.49 1014.01 1013.13 1012.41 1011.97 1011.85 1011.65 1011.41 1011.25 1011.13 1011.05 1010.89 1010.69 1010.49 1010.33 1009.85 1009.57 1009.61 1009.09 1008.81 1008.73 1008.77 1008.69 1008.21 1007.69 1007.29 1006.61 1006.01 1005.53 1005.29 1004.77 1004.49 1004.25 1003.97 1003.45 1003.01 1002.65 1002.29 1001.81 1001.37 1000.97 1000.69 1000.37 1000.01 999.89 999.81 999.85 999.65 999.53 999.33 999.17 999.05 999.25 999.65 999.93 1000.45 1000.69 1000.81 1000.97
1015.49 1015.29 1015.25 1014.77 1014.69 1014.45 1013.41 1012.73 1012.29 1011.89 1011.61 1011.33 1010.97 1010.73 1010.57 1010.57 1010.53 1010.37 1010.21 1010.05 1009.89 1009.61 1009.09 1008.73 1008.57 1008.65 1008.57 1008.21 1007.81 1007.49 1006.93 1006.21 1005.61 1005.17 1005.01 1004.81 1004.53 1004.25 1003.89 1003.61 1003.45 1003.09 1002.65 1002.17 1001.85 1001.57 1000.93 1000.57 1000.45 1000.33 1000.37 1000.25 1000.09 999.69 999.45 999.37 999.25 999.45 999.77 1000.25 1000.65 1000.69 1000.73
1016.33 1015.41 1014.97 1014.37 1014.05 1013.53 1012.77 1012.41 1011.89 1011.41 1011.09 1010.93 1010.69 1010.29 1010.09 1010.13 1010.17 1010.05 1010.05 1010.05 1009.81 1009.61 1009.37 1009.09 1008.65 1008.49 1008.53 1008.37 1007.97 1007.77 1007.37 1006.69 1005.89 1005.45 1005.29 1005.01 1004.57 1004.25 1004.09 1003.85 1003.77 1003.65 1003.37 1002.93 1002.45 1001.89 1001.37 1001.05 1000.89 1000.77 1000.81 1000.85 1000.69 1000.29 999.93 999.65 999.57 999.73 999.65 999.81 1000.21 1000.37 1000.49
Wind_Speed
13 15 15 17 14 12 12 13 16 14 10 12 11 10 9 9 9 13 8 11 12 7 9 10 10 10 12 14 17 19 20 18 16 14 12 14 14 15 16 17 18 20 20 21 21 22 21 21 22 22 22 21 21 20 19 20 20 19 20 20 19 18 18
7 6 7 13 17 14 8 14 12 11 12 12 11 11 9 12 14 9 10 14 12 13 12 13 16 16 15 14 13 14 16 17 18 17 16 15 15 15 18 19 19 20 21 22 21 20 23 24 24 23 23 22 20 20 20 21 21 21 20 20 20 19 19
10 6 9 13 14 15 16 10 12 14 14 16 13 8 14 14 15 11 11 14 14 13 9 6 16 22 20 17 16 16 16 16 16 15 17 17 17 16 16 18 17 18 19 21 22 23 24 23 22 23 23 22 21 20 20 22 23 23 22 19 19 17 18
5 9 12 14 14 18 19 16 14 16 12 13 12 13 9 8 12 9 11 14 12 11 11 10 6 13 19 19 16 17 18 17 15 14 15 17 17 16 16 17 18 19 21 23 24 24 24 24 24 23 25 22 24 22 21 21 20 19 20 20 19 19 19
3 12 11 15 13 15 16 17 14 11 14 11 10 11 14 12 11 10 7 10 10 9 8 12 10 6 8 13 15 14 13 15 15 14 14 14 16 16 16 17 18 20 21 22 23 22 22 21 20 20 21 23 22 21 21 22 22 23 23 21 20 18 17
13 11 13 18 19 14 15 18 17 17 15 15 16 15 12 14 11 8 8 10 2 3 7 9 9 9 9 9 10 12 14 15 14 13 15 14 14 16 17 18 18 19 20 21 21 19 18 19 20 23 22 21 22 23 22 22 21 21 22 21 20 19 18
11 13 0 8 6 8 9 10 18 20 17 15 15 12 13 12 14 12 10 8 8 3 6 4 6 9 12 13 14 14 13 12 14 15 16 15 15 16 16 17 18 18 19 19 19 21 22 23 22 24 22 22 23 24 22 21 22 23 22 21 19 18 18
17 21 17 9 7 7 9 13 8 13 20 18 16 14 8 11 13 13 11 12 7 4 3 3 2 2 4 5 5 6 8 11 13 14 15 15 15 16 16 16 16 15 15 16 16 19 20 19 19 21 20 20 20 20 21 21 23 23 22 20 19 19 18
9 13 14 14 5 7 13 12 13 9 6 5 3 4 3 7 11 12 11 13 8 9 8 6 8 10 9 8 8 9 9 8 8 7 4 8 12 12 13 13 13 13 14 17 18 19 19 20 21 20 21 21 21 21 21 21 21 22 21 19 19 20 20
12 13 16 15 14 15 13 16 8 4 11 11 7 12 9 8 10 12 12 9 6 2 6 5 6 8 11 10 9 8 8 7 7 8 6 2 3 5 8 10 11 14 15 15 16 17 17 19 20 19 19 20 21 20 22 21 20 20 21 19 20 19 19
12 6 10 10 7 9 12 12 12 8 9 5 9 11 16 16 12 12 12 11 7 8 9 6 6 6 9 9 8 7 5 6 6 6 6 7 9 9 10 11 11 10 11 15 17 18 19 20 19 18 20 20 20 19 21 21 19 20 20 19 19 19 19
18 17 16 13 12 12 12 9 7 8 7 8 14 17 18 7 8 16 12 14 13 10 5 1 1 4 6 7 5 3 2 1 1 2 2 3 5 7 8 11 13 15 16 17 18 19 19 19 20 18 19 19 19 19 20 20 20 19 18 19 20 19 19
19 17 16 13 11 11 12 12 11 9 8 8 13 16 19 15 12 15 9 5 11 12 11 9 4 12 10 10 11 10 9 7 4 3 4 5 5 7 11 13 14 15 16 15 18 18 19 20 21 21 19 19 18 18 18 19 19 20 19 19 20 19 18
18 19 17 15 15 13 13 14 14 12 12 11 11 13 12 13 10 7 8 9 11 10 8 10 11 13 14 13 11 10 9 8 8 7 7 7 6 4 7 12 15 16 17 18 19 19 19 21 21 20 19 19 20 20 20 21 20 19 18 19 19 19 19
15 17 16 14 15 15 16 15 15 15 13 13 12 11 13 13 13 12 13 12 14 9 6 9 10 12 12 13 13 12 9 9 10 10 10 9 9 7 6 5 11 13 16 17 18 19 20 21 22 20 19 19 20 21 20 20 20 20 20 19 19 19 19
12 14 14 16 14 15 17 18 17 17 15 14 12 12 11 14 13 11 12 13 13 13 8 10 8 10 13 13 12 11 9 10 11 12 12 12 11 11 9 7 7 9 13 16 17 20 22 23 23 21 18 19 20 21 21 21 21 20 20 19 20 18 18
11 12 14 13 12 12 15 18 17 17 16 13 12 11 4 6 7 12 11 12 2 7 9 9 8 9 11 11 10 10 11 11 11 12 13 14 14 13 13 12 10 11 13 14 18 20 21 21 21 23 22 20 20 21 21 20 19 19 19 19 18 18 17
10 13 13 11 12 17 16 6 13 17 18 16 15 11 6 4 5 7 5 7 6 8 9 10 10 10 10 11 10 8 8 10 12 13 14 15 15 15 14 13 13 12 11 13 15 19 19 21 24 23 21 21 19 18 17 17 19 17 17 17 17 18 17
10 10 10 9 16 15 5 2 7 11 16 18 9 9 4 2 1 3 7 7 7 10 10 11 11 12 13 14 14 12 8 9 11 13 14 15 15 16 15 15 14 13 13 14 16 17 20 21 19 18 18 17 16 17 18 19 19 17 18 17 16 17 17
10 10 9 9 11 9 3 5 3 3 5 9 15 9 5 1 2 3 6 6 8 10 11 11 10 11 13 14 13 12 8 8 10 13 13 15 16 17 16 17 17 15 15 15 17 17 17 17 19 20 20 19 18 18 18 18 18 18 17 16 16 16 17
10 10 10 13 10 9 10 9 4 5 8 11 12 8 3 3 1 2 2 4 6 9 11 12 11 10 11 12 11 6 6 8 10 12 14 16 17 17 18 18 19 16 15 15 15 14 14 16 18 19 18 19 19 18 18 18 18 18 17 17 17 17 17
10 10 10 9 12 12 9 4 3 3 2 1 2 3 6 1 2 3 4 5 8 10 12 13 14 12 11 10 8 6 14 12 14 14 14 15 15 16 17 17 17 16 14 13 13 14 17 18 19 17 18 19 18 18 18 17 18 18 19 19 17 17 17
8 11 10 9 9 7 6 5 2 3 4 2 2 6 7 2 3 5 5 6 8 10 11 14 13 8 11 9 3 13 17 18 16 15 14 14 15 15 15 16 15 13 10 11 13 14 16 18 17 17 19 20 19 18 18 19 19 18 18 18 17 18 18
12 10 10 11 8 3 1 9 9 4 5 3 4 10 6 2 4 5 6 7 10 11 11 9 8 9 3 7 11 17 19 18 17 14 14 12 14 14 13 12 12 11 8 10 12 15 18 18 18 19 20 19 19 18 18 18 19 19 19 18 18 16 15
13 14 11 9 10 2 7 9 10 6 5 5 11 9 6 3 6 6 6 8 9 10 10 10 7 7 7 10 13 16 17 18 16 14 11 11 11 13 13 11 12 7 6 10 12 15 14 16 17 19 18 18 18 17 18 18 19 19 17 15 15 15 15
13 12 11 10 9 5 11 11 6 6 5 10 7 5 2 6 7 7 7 8 9 10 10 8 7 9 12 13 13 15 16 14 15 14 11 11 11 11 12 8 8 4 7 10 12 14 13 16 17 18 18 17 16 17 17 19 19 16 14 15 15 15 15
10 10 10 8 10 2 15 17 6 5 6 4 3 2 6 6 7 7 8 9 9 10 10 11 11 12 13 13 15 16 16 14 14 14 13 12 12 12 12 9 6 5 3 7 11 13 14 16 16 17 18 17 16 16 18 18 15 15 15 15 15 15 15
10 10 10 6 3 8 10 11 5 6 6 5 6 6 4 6 6 6 6 8 9 10 11 11 13 12 13 14 16 17 15 14 15 14 13 13 13 13 12 8 9 4 2 4 8 11 12 14 14 14 16 15 15 16 17 13 13 14 14 14 14 14 14
6 4 1 4 7 7 7 5 3 2 3 5 7 7 5 4 5 5 4 7 8 8 11 11 12 13 14 14 15 15 15 15 15 15 14 13 13 13 15 15 13 7 0 1 1 5 8 12 10 11 13 13 14 14 12 12 13 14 14 14 14 14 14
7 10 8 7 8 9 8 3 3 1 1 3 5 7 7 6 6 6 5 6 8 10 9 10 10 12 15 16 15 16 15 15 15 15 15 15 15 15 15 16 14 10 4 2 4 4 4 6 6 8 9 10 12 11 11 11 13 12 13 13 14 14 13
3 1 3 5 8 11 9 5 2 1 2 4 6 8 7 7 8 7 7 7 7 9 10 10 10 11 13 15 15 15 13 14 15 16 15 16 15 14 15 15 15 11 9 6 5 5 6 4 5 6 6 7 8 9 10 11 12 12 12 13 12 12 12
4 3 5 7 12 10 8 5 3 5 5 7 8 8 8 8 8 9 8 8 8 8 9 11 11 11 13 14 14 14 14 13 13 13 15 17 16 16 16 16 15 14 14 13 11 8 6 6 4 5 5 5 7 8 9 10 11 10 11 11 12 12 13
6 10 6 11 13 4 5 4 2 5 9 11 11 10 9 9 10 11 9 8 8 9 10 11 11 12 13 13 15 15 13 13 13 13 14 13 14 15 16 14 14 13 14 14 13 13 12 9 7 6 5 4 5 6 6 7 8 10 10 11 10 11 11
2 3 7 10 7 3 6 10 12 12 12 12 12 11 10 10 11 11 12 10 9 9 10 10 11 12 12 15 15 15 14 13 13 13 14 13 15 17 15 12 14 14 15 16 15 14 12 11 10 10 10 8 5 3 4 5 7 9 9 10 10 10 10
5 8 10 9 9 10 11 11 13 14 13 12 13 11 10 10 10 11 12 12 10 10 9 9 10 11 12 14 14 14 15 15 13 14 16 16 13 14 14 15 16 16 15 15 15 15 13 12 12 11 11 10 9 7 5 2 8 8 9 8 8 8 9
7 8 10 10 9 9 12 14 15 14 12 11 12 10 9 9 9 9 10 10 10 10 10 9 8 10 11 13 14 14 15 15 15 16 16 14 10 9 12 15 14 15 15 14 15 14 13 12 12 11 12 11 9 7 5 5 1 8 8 8 7 8 8
7 10 11 12 11 9 8 10 12 10 9 10 11 11 10 8 8 8 9 9 9 9 9 8 9 9 11 12 13 14 15 14 15 16 16 15 15 13 13 14 14 14 12 12 12 12 11 11 12 11 11 11 11 10 8 6 5 3 7 8 8 8 7
Wind_Direction
197 207 204 207 219 221 182 198 211 219 217 233 239 257 258 275 259 239 205 207 229 263 240 208 215 228 225 218 222 224 227 221 219 221 213 203 199 195 193 196 197 195 191 190 191 190 189 188 189 191 188 187 188 186 185 185 184 181 184 186 188 193 198
206 247 233 216 210 243 217 204 211 210 233 243 237 237 213 225 237 224 204 224 214 210 241 214 220 225 223 222 221 221 218 219 221 221 217 207 202 198 196 198 197 192 192 192 193 192 191 190 189 188 187 186 187 188 185 183 183 183 184 184 188 192 196
183 191 208 224 236 228 251 241 178 208 189 214 214 240 227 217 225 237 222 228 236 219 220 177 211 218 222 223 220 219 220 219 218 216 211 208 205 202 199 200 195 194 194 192 192 193 195 192 189 187 185 185 186 188 188 187 187 185 181 182 185 188 190
175 218 205 225 209 215 236 265 254 204 230 216 210 212 247 245 246 229 225 222 233 221 235 233 221 217 218 221 219 220 222 219 216 213 208 207 205 201 199 198 196 196 196 195 194 194 192 190 188 187 187 187 188 188 187 189 188 185 183 183 183 187 190
223 220 205 223 216 203 205 222 229 224 219 210 226 219 222 228 236 237 239 220 225 221 214 229 217 209 210 217 221 220 218 222 214 209 211 209 203 200 199 197 197 198 198 197 196 194 193 191 188 188 188 189 189 187 188 189 186 186 187 185 183 186 187
216 236 215 223 228 235 227 207 223 223 219 210 214 226 215 227 234 236 229 238 240 141 189 205 212 215 219 218 232 227 220 220 223 214 210 208 201 201 199 198 199 198 198 198 195 191 190 188 188 191 191 189 188 190 190 188 188 190 189 187 186 184 186
247 221 72 323 315 278 288 261 215 210 231 219 224 231 219 222 232 242 244 263 231 129 116 166 200 217 220 224 224 232 236 234 223 220 218 207 202 202 204 203 202 199 196 194 190 187 189 190 190 190 190 190 191 190 188 188 189 190 190 189 185 183 185
273 276 276 284 297 298 274 226 267 231 217 221 229 231 243 244 217 215 221 232 234 207 169 227 219 203 288 288 272 264 250 235 231 227 216 211 203 200 206 208 207 199 189 186 187 187 189 190 189 190 192 193 192 191 190 190 192 189 189 187 186 184 185
226 246 247 235 232 256 234 235 215 232 270 277 288 307 326 256 239 231 210 233 217 225 225 208 235 259 250 237 235 242 243 244 259 269 297 229 199 206 213 212 206 194 186 183 187 187 186 188 190 189 190 192 191 192 191 191 191 188 188 186 186 185 186
223 207 213 217 214 216 218 234 230 231 235 237 242 238 225 243 232 253 236 229 227 121 123 200 221 236 246 254 262 250 236 241 252 257 220 198 190 207 217 212 198 196 190 186 186 185 186 189 190 188 190 191 193 192 193 191 187 186 187 187 186 185 186
263 322 348 342 323 326 226 202 224 214 220 244 253 253 235 225 221 235 237 258 253 213 197 186 222 234 241 240 235 231 247 253 239 222 226 204 196 197 201 200 203 196 188 187 187 187 187 190 190 189 190 191 193 191 190 189 187 186 185 185 185 185 187
268 277 283 307 310 286 292 290 239 217 214 219 225 223 226 249 271 238 223 225 244 254 254 98 232 248 238 239 261 277 229 70 330 51 130 231 214 202 193 196 194 194 193 189 187 187 189 189 191 191 191 191 191 190 189 188 186 184 184 186 185 186 187
276 277 277 282 286 282 282 280 277 253 225 215 220 224 233 229 235 238 228 280 253 238 251 270 338 357 331 336 342 335 325 298 312 321 304 282 252 204 191 189 191 195 192 190 190 189 189 190 190 190 190 190 190 188 189 189 188 187 184 184 185 185 187
279 278 274 266 259 263 264 259 262 261 249 236 228 230 230 232 236 254 291 278 296 263 276 315 326 322 323 327 327 314 317 334 336 319 301 289 282 253 205 197 196 193 197 193 192 191 189 192 193 192 189 188 188 188 188 187 188 186 181 184 184 185 188
282 282 278 265 254 253 259 260 259 257 249 242 235 236 231 236 243 239 242 268 268 254 325 333 319 311 314 315 315 327 339 338 337 327 314 308 312 314 309 246 211 207 202 200 195 193 192 193 194 193 191 189 187 187 186 187 188 185 182 182 184 185 186
277 271 269 258 256 248 251 257 253 249 239 234 227 225 225 227 224 221 225 230 241 254 331 324 314 292 287 291 308 322 338 345 339 330 322 323 320 318 316 308 288 240 215 204 196 196 195 194 193 193 191 189 187 188 186 188 187 185 184 184 184 183 182
266 270 271 264 257 256 249 242 240 239 240 243 235 224 226 252 250 227 218 220 244 346 337 324 326 317 299 288 296 324 331 334 329 324 320 319 318 317 315 307 289 268 251 223 203 200 198 194 193 194 190 188 189 188 185 186 183 185 185 183 182 181 180
272 279 265 253 245 236 235 246 234 225 230 221 225 210 176 176 216 245 302 318 342 324 328 321 321 312 309 312 306 301 317 327 328 322 319 317 315 311 308 304 297 288 266 251 223 206 197 195 195 193 189 189 188 184 179 177 182 184 182 182 181 182 180
263 273 275 256 234 235 232 302 264 240 220 216 198 95 99 137 225 284 273 269 316 323 310 307 302 299 291 288 284 280 305 328 320 317 313 312 310 306 303 301 298 292 275 252 238 217 204 199 193 187 188 187 179 179 177 179 181 179 180 182 182 182 181
261 257 245 248 240 232 185 189 249 301 258 174 123 117 95 84 288 287 270 285 293 302 304 308 302 294 286 281 276 272 289 319 318 313 311 308 307 304 304 303 295 285 272 252 237 224 210 197 189 190 187 183 180 179 175 175 177 179 177 180 181 181 182
248 247 246 246 284 245 220 208 205 182 214 183 186 188 104 46 12 350 312 306 313 322 327 316 309 291 278 267 261 239 9 331 321 314 308 305 302 302 300 295 292 284 263 252 239 221 206 198 191 190 185 180 178 175 174 176 175 177 177 180 182 182 185
233 253 255 255 240 242 212 86 169 246 43 351 333 137 125 359 55 10 8 351 350 340 334 330 319 294 255 251 229 51 356 347 334 326 310 302 300 299 299 297 289 273 256 242 228 214 197 194 190 182 180 177 172 171 174 173 174 176 180 182 183 183 186
230 232 243 242 247 233 89 132 337 63 335 319 297 236 198 67 348 34 3 10 5 356 338 329 317 251 228 229 27 360 347 336 330 320 311 302 300 300 300 301 296 280 246 230 220 202 192 188 181 174 174 172 170 170 173 174 177 180 184 185 185 185 186
237 237 229 236 230 265 288 358 326 359 342 18 219 220 203 30 30 24 20 18 14 357 343 345 18 20 294 335 333 333 326 327 316 313 308 309 309 306 304 306 303 286 247 215 206 192 191 185 175 172 169 171 172 170 174 177 181 186 188 188 188 186 183
226 235 247 252 254 232 12 343 320 343 299 231 203 215 83 70 49 33 24 28 19 4 359 16 21 0 337 314 314 316 318 318 321 319 324 324 316 315 317 323 308 279 223 207 199 196 187 179 172 173 172 173 172 173 174 179 188 191 187 181 182 183 182
221 223 233 243 271 32 349 339 330 359 241 196 193 69 37 50 48 46 33 29 20 3 4 357 353 332 329 323 322 324 320 314 315 315 338 345 340 332 328 328 322 317 238 215 205 193 178 174 173 171 171 172 171 172 176 186 190 184 175 178 178 180 182
224 220 230 230 248 35 353 336 279 17 275 61 340 311 86 58 37 31 32 20 7 358 349 350 342 335 334 335 333 332 325 329 326 330 351 353 352 349 341 341 357 337 278 216 205 194 180 178 175 175 174 172 173 174 184 186 178 174 175 177 177 179 180
223 210 212 222 355 333 335 350 354 51 63 23 8 346 76 54 34 14 6 11 3 352 345 342 342 336 339 338 343 335 326 325 337 345 348 355 354 353 353 358 1 357 261 233 210 194 189 185 181 179 179 175 177 182 185 171 172 172 172 175 174 177 177
254 239 314 329 316 333 340 353 27 86 41 48 12 10 14 15 18 355 348 348 347 351 349 345 345 344 346 344 340 332 325 326 341 344 349 350 353 354 356 10 8 8 172 191 146 190 181 177 175 181 181 179 178 179 170 166 169 170 171 172 174 177 177
310 291 263 284 296 321 326 309 330 358 313 3 12 0 345 342 340 327 331 340 341 335 339 348 342 351 346 345 340 333 333 333 344 348 352 355 354 356 358 7 13 23 31 145 149 119 113 145 167 180 182 181 177 171 163 164 167 166 167 170 174 176 177
343 275 64 262 305 315 293 230 201 204 295 333 343 337 331 312 313 315 311 328 335 339 348 345 341 340 349 347 341 333 334 337 346 354 351 354 353 356 359 357 13 28 36 56 75 113 107 135 162 162 176 184 172 166 161 165 165 164 168 170 173 177 180
268 270 296 313 320 293 254 217 258 288 312 323 324 323 314 313 305 301 309 316 322 334 342 343 345 344 351 352 345 338 340 340 347 353 353 358 358 358 4 3 17 32 33 38 49 70 93 97 86 110 128 135 155 161 160 170 172 169 176 175 179 182 183
279 271 266 337 318 245 179 169 275 320 319 315 311 313 311 310 307 303 308 318 317 326 338 336 342 344 348 346 342 340 337 345 352 353 349 355 6 11 6 357 2 16 30 44 49 56 55 60 83 87 93 110 140 154 158 173 171 177 180 179 183 184 184
305 4 349 344 335 319 307 316 321 320 315 311 309 306 304 307 305 308 308 310 318 321 323 333 340 349 345 346 344 341 343 347 350 351 355 353 7 15 13 6 7 8 20 31 39 45 53 53 65 71 67 70 80 123 158 172 186 185 176 180 184 186 186
306 336 336 321 306 291 286 300 312 313 312 309 305 303 304 305 303 302 301 301 311 315 319 328 335 349 348 343 343 344 349 349 355 357 3 5 2 6 7 12 11 9 9 18 29 36 38 43 55 64 63 57 54 51 54 164 188 182 180 176 185 187 186
306 331 319 317 307 300 303 305 305 306 305 303 300 300 299 295 297 299 296 295 295 300 308 319 339 347 345 344 347 346 345 350 357 0 5 3 4 11 18 19 13 11 7 11 19 21 26 35 42 47 54 53 48 53 60 44 105 177 173 179 182 189 187
333 327 323 317 309 297 304 309 313 310 318 319 308 302 301 301 297 300 297 292 282 281 294 309 328 339 345 344 350 348 344 350 1 2 359 2 9 19 20 18 17 12 11 9 13 14 18 29 38 37 40 39 34 36 34 37 37 96 164 171 177 181 184